Meteor 2-1 Rocket - Orbit

View from above orbital plane
View from above orbital plane
View from above satellite
View from above satellite

Ground track
Ground track

The orbit data is extracted from the following two-line orbital elements,

1 08027U 75064B   13140.15812969  .00000190  00000-0  10447-3 0  8010
2 08027 081.2998 049.5956 0054178 147.5943 002.4433 14.07131345943058
Epoch (UTC): 20 May 2013 03:47:42
Eccentricity: 0.0054178
inclination: 81.2998°
perigee height: 830 km
apogee height: 908 km
right ascension of ascending node: 49.5956°
argument of perigee: 147.5943°
revolutions per day: 14.07131345
mean anomaly at epoch: 2.4433°
orbit number at epoch: 94305

The dashed part of the orbit path shows where the satellite is in the earth's shadow,  

Developed and maintained by Chris Peat, Heavens-Above GmbH. Please read the updated FAQ before sending e-mail. Imprint. DLR